Location: Auttagershofen
(48.1940°N, 10.0237°E)
Time: 17:45:57
(UTC+00:00)

Cosmos 1484 Rocket - Pass Details

Date: 18 January 2026
Orbit: 439 x 466 km, 97.6° (Epoch: 16 February)

Event Time Altitude Azimuth Distance (km) Brightness Sun altitude
Rises 05:04:15 0° 17° (NNE) 2,460 6.2 -19.4°
Reaches altitude 10° 05:06:19 10° 22° (NNE) 1,588 5.3 -19.1°
Maximum altitude 05:09:39 52° 100° (E) 568 3.2 -18.5°
Drops below altitude 10° 05:13:00 10° 179° (S) 1,590 5.3 -18.0°
Sets 05:15:04 0° 184° (S) 2,464 6.2 -17.6°
